Weather History for KPMP - August, 2013

Change the Weather History Date:

Wednesday, August 21, 2013

  Actual Average (KFLL) Record (KFLL)
Temperature  
Mean Temperature 86 °F 84 °F  
Max Temperature 90 °F 90 °F 96 °F (1958)
Min Temperature 81 °F 79 °F 70 °F (1946)
Degree Days  
Heating Degree Days 0 0  
Month to date heating degree days 0  
Since 1 June heating degree days 0  
Since 1 July heating degree days 0  
Cooling Degree Days 20 19  
Month to date cooling degree days 418  
Year to date cooling degree days 2977  
Since 1 June cooling degree days 1559  
Growing Degree Days 36 (Base 50)    
Moisture  
Dew Point 76 °F    
Average Humidity 75    
Maximum Humidity 85    
Minimum Humidity 63    
Precipitation  
Precipitation 0.04 in 0.23 in 1.62 in (1963)
Month to date precipitation 4.80  
Year to date precipitation 38.43  
Snow  
Snow 0.00 in - - ()
Month to date snowfall  
Since 1 June snowfall  
Since 1 July snowfall  
Snow Depth -    
Sea Level Pressure  
Sea Level Pressure 30.05 in    
Wind  
Wind Speed 11 mph (East)    
Max Wind Speed 18 mph    
Max Gust Speed 28 mph    
Visibility 10 miles    
Events Rain , Thunderstorm    
T = Trace of Precipitation, MM = Missing Value Source: NWS Daily Summary

Daily Weather History Graph

Daily Weather History Graph

Search for Another Location

Airport or City:

Trip Planner

Search our weather history database for the weather conditions in past years. The results will help you decide how hot, cold, wet, or windy it might be!

Date:

Astronomy

Aug. 21, 2013 Rise Set
Actual Time 6:55 AM EDT 7:50 PM EDT
Civil Twilight 6:31 AM EDT 8:14 PM EDT
Nautical Twilight 6:03 AM EDT 8:42 PM EDT
Astronomical Twilight 5:34 AM EDT 9:11 PM EDT
Moon 8:11 PM EDT (8/21) 7:24 AM EDT (8/21)
Length of Visible Light 13h 42m
Length of Day
12h 55m
Full, 100% of the Moon is Illuminated
Aug 21
Full
Aug 28
Last Quarter
Sep 5
New
Sep 12
First Quarter
Sep 19
Full

Hourly Weather History & Observations

Time (EDT) Temp. Heat Index Dew Point Humidity Pressure Visibility Wind Dir Wind Speed Gust Speed Precip Events Conditions
12:53 AM 84.0 °F 91.9 °F 75.0 °F 74% 30.06 in 10.0 mi East 8.1 mph - N/A   Clear
1:53 AM - - - N/A% 30.05 in 10.0 mi East 9.2 mph - N/A   Clear
2:53 AM - - - N/A% 30.05 in 10.0 mi East 10.4 mph - N/A   Partly Cloudy
3:53 AM 82.9 °F 90.2 °F 75.0 °F 77% 30.02 in 10.0 mi East 10.4 mph - N/A   Unknown
4:53 AM 82.0 °F 90.2 °F 77.0 °F 85% 30.03 in 9.0 mi ESE 6.9 mph - 0.00 in Rain Light Rain
5:26 AM 82.4 °F 88.2 °F 73.4 °F 74% 30.03 in 10.0 mi ENE 9.2 mph - 0.00 in Thunderstorm Clear
5:41 AM 82.4 °F 89.5 °F 75.2 °F 79% 30.04 in 10.0 mi East 6.9 mph - 0.00 in   Clear
5:53 AM 82.0 °F 88.6 °F 75.0 °F 79% 30.04 in 10.0 mi East 8.1 mph - 0.00 in   Clear
6:53 AM 82.9 °F 90.2 °F 75.0 °F 77% 30.04 in 10.0 mi East 10.4 mph - N/A   Partly Cloudy
7:53 AM 84.0 °F 91.9 °F 75.0 °F 74% 30.05 in 10.0 mi East 10.4 mph - N/A   Mostly Cloudy
8:53 AM 82.0 °F 87.4 °F 73.0 °F 74% 30.07 in 10.0 mi East 10.4 mph - N/A   Scattered Clouds
9:53 AM 84.0 °F 92.6 °F 75.9 °F 76% 30.08 in 10.0 mi East 16.1 mph 20.7 mph N/A   Mostly Cloudy
10:53 AM 84.0 °F 92.6 °F 75.9 °F 76% 30.09 in 10.0 mi East 13.8 mph 20.7 mph 0.00 in   Mostly Cloudy
11:53 AM 86.0 °F 96.9 °F 77.0 °F 74% 30.08 in 10.0 mi East 13.8 mph 18.4 mph N/A   Partly Cloudy
12:53 PM 90.0 °F 101.3 °F 75.9 °F 63% 30.08 in 10.0 mi East 13.8 mph 25.3 mph N/A   Scattered Clouds
1:53 PM 89.1 °F 100.2 °F 75.9 °F 65% 30.06 in 10.0 mi ESE 16.1 mph - N/A   Scattered Clouds
2:53 PM 88.0 °F 98.5 °F 75.9 °F 67% 30.05 in 10.0 mi East 17.3 mph - N/A   Scattered Clouds
3:53 PM 88.0 °F 101.3 °F 78.1 °F 72% 30.03 in 10.0 mi East 17.3 mph - N/A   Mostly Cloudy
4:53 PM 86.0 °F 96.0 °F 75.9 °F 72% 30.01 in 10.0 mi East 13.8 mph 21.9 mph 0.00 in   Mostly Cloudy
5:53 PM 82.9 °F 91.8 °F 77.0 °F 82% 30.01 in 10.0 mi East 10.4 mph - 0.03 in   Mostly Cloudy
6:53 PM 84.0 °F 92.6 °F 75.9 °F 76% 30.01 in 6.0 mi East 18.4 mph 27.6 mph 0.00 in Rain Light Rain
7:53 PM 82.9 °F 91.8 °F 77.0 °F 82% 30.02 in 10.0 mi East 12.7 mph - 0.00 in   Mostly Cloudy
8:53 PM 81.0 °F 85.8 °F 73.0 °F 77% 30.05 in 10.0 mi East 17.3 mph 25.3 mph 0.01 in Rain Light Rain
9:53 PM 84.0 °F 92.6 °F 75.9 °F 76% 30.06 in 10.0 mi East 9.2 mph - 0.00 in   Partly Cloudy
10:53 PM 84.0 °F 92.6 °F 75.9 °F 76% 30.06 in 10.0 mi East 12.7 mph - N/A   Partly Cloudy
11:53 PM 82.9 °F 90.8 °F 75.9 °F 79% 30.07 in 10.0 mi ESE 10.4 mph - 0.00 in   Partly Cloudy